Погода в Пацове

Чехия     49°28′21″N   15°00′17″E
темп.,
°C
ветер,
м/с
пор.,
м/с
влажн.,
%
обл.,
%
осадки,
мм/ч
давл.,
гПа
погр.,
м
27 сентября, пн
пн2723:00+13юв2287100 0.0 101812
02:00+13юв228677 0.0 101820
05:00+12юв1189100 0.0 101710
08:00+13юв1285100 0.0 101782
11:00+15ююз1182100 0.3 1018236
14:00+14зюз1195100 4.4 101878
17:00+15з128253 0.9 1018220
20:00+13юз228576 0.9 101923
28 сентября, вт
вт2823:00+13зюз3791100 0.0 1020192
02:00+12зсз3694100 0.0 1021130
05:00+12з3394100 0.0 102262
08:00+12зсз24925 0.0 102395
11:00+17ссз45735 0.0 1023625
14:00+19ссз34605 0.0 10221121
17:00+19ссв336340 0.0 10211082
20:00+14всв228581 0.0 102227
29 сентября, ср
ср2923:00+12в2393100 0.0 102264
02:00+12вюв3796100 0.0 1021155
05:00+10вюв3876100 0.0 1020198
08:00+10ююв2773100 0.0 1019228
11:00+14ю6865100 0.0 1019538
14:00+13з61084100 0.1 1020689
17:00+15з3876100 0.1 1020944
20:00+11зюз3384100 0.1 102353
30 сентября, чт
чт3023:00+10зюз338928 0.0 102449
02:00+11з5983100 0.0 1025482
05:00+8з41180100 0.0 1027401
08:00+8з596978 0.0 1029754
11:00+11з684985 0.0 10291090
14:00+13з563882 0.0 10281514
17:00+12зсз34430 0.0 10281398
20:00+7з11542 0.0 102910
1 октября, пт
пт123:00+6ю115610 0.0 102910
02:00+5ююв225817 0.0 102910
05:00+5юв225938 0.0 102812
08:00+6ююв226612 0.0 102730
11:00+12ююв57515 0.0 1025579
14:00+15ююв664853 0.0 1022883
17:00+15ююв59595 0.0 1020764
20:00+11юв715715 0.0 1020397